Simultaneous Nadir Overpasses (SNOs) Predictions

Prediction of SNOs between METOP-A and NOAA-19 Satellite Orbit:

Table of predicted SNOs for the next 14.0 days since TLE Epoch: 3/9/2018
Index Date (METOP-A) Time (METOP-A) Lat,Lon (METOP-A) SZA (METOP-A ) Date (NOAA-19) Time (NOAA-19) Lat,Lon (NOAA-19) SZA (NOAA-19 ) Distance(km) Time Diff (sec)
1 03/16/2018 08:20:47 78.26, 62.44 79.96 03/16/2018 08:19:39 78.28, 62.38 79.97 2.48 68
2 03/16/2018 09:11:28 -78.27,-130.17 100.05 03/16/2018 09:10:36 -78.27,-130.34 100.05 3.84 52
3 03/16/2018 10:02:09 78.24, 36.98 79.90 03/16/2018 10:01:40 78.27, 36.94 79.93 3.57 29
4 03/16/2018 10:52:50 -78.25,-155.63 100.10 03/16/2018 10:52:36 -78.23,-155.55 100.12 2.85 14
5 03/16/2018 11:43:30 78.25, 11.74 79.90 03/16/2018 11:43:40 78.22, 11.72 79.86 3.77 10
6 03/16/2018 12:34:12 -78.23, 178.92 100.15 03/16/2018 12:34:37 -78.22, 179.00 100.16 2.12 25
7 03/16/2018 13:24:52 78.23, -13.72 79.84 03/16/2018 13:25:41 78.21, -13.72 79.83 2.40 49
8 03/16/2018 14:15:34 -78.20, 153.46 100.21 03/16/2018 14:16:38 -78.21, 153.55 100.20 2.22 64




NCC Satellite Simultaneous Nadir Overpasses (SNOs) Prediction Service
